#timestamp,LO_Frequency,Hit,StdDev 
1459328415.5,286046998.8,N
1459328435.3,286046997.0,N
1459328455.2,286047001.1,N
1459328475.9,286046996.5,N
1459328495.7,286046997.4,N
1459328515.6,286046997.2,N
1459328535.4,286046997.4,N
1459328555.2,286046999.5,N
1459328575.0,286046996.7,N
1459328576.0,286046996.7,N
1459328595.8,286046999.6,N
1459328615.6,286046997.4,N
1459328635.4,286046996.2,N
1459328655.3,286046991.8,Y
1459328675.1,286046993.6,P
1459328695.8,286046996.3,N
1459328715.7,286046995.1,N
1459328735.5,286046995.9,N
1459328755.3,286046994.9,Y
1459328775.2,286047002.6,P
1459328795.0,286047001.7,N
1459328795.9,286047001.7,N
1459328815.7,286047000.6,N
1459328835.6,286047002.5,N
1459328855.4,286047003.8,N
1459328875.2,286047004.2,N
1459328895.1,286047004.2,N
1459328896.0,286047004.2,N
1459328915.8,286047004.4,N
1459328935.6,286047004.8,N
1459328955.5,286047007.5,Y
1459328975.3,286047005.4,P
1459328995.1,286047001.7,N
1459329015.9,286047000.4,N
1459329035.7,286046999.7,N
1459329055.5,286046999.5,N
1459329075.4,286046993.7,Y
1459329095.2,286046993.3,P
1459329115.0,286046997.4,N
1459329115.9,286046997.4,N
1459329135.8,286046995.4,N
1459329155.6,286046995.4,N
1459329175.4,286046990.6,Y
1459329195.3,286046992.3,P
1459329215.1,286046991.3,P
1459329216.0,286046991.3,P
1459329235.8,286046986.0,Y
1459329255.7,286046994.7,P
1459329275.5,286046992.9,P
1459329295.3,286046990.7,P
1459329315.2,286046990.9,Y
1459329335.0,286046997.1,P
1459329335.9,286046997.1,N
1459329355.7,286046999.1,N
1459329375.6,286046996.9,N
1459329395.4,286046999.0,N
1459329415.2,286046998.6,N
1459329435.1,286047000.3,N
1459329436.0,286047000.3,N
1459329455.8,286047000.4,N
1459329475.6,286046996.6,N
1459329495.5,286046997.1,N
1459329515.3,286046999.1,N
1459329535.1,286046995.1,N
1459329555.9,286046993.7,Y
1459329575.7,286046995.2,P
1459329595.5,286046997.4,N
1459329615.4,286046997.0,N
1459329635.2,286047002.3,N
1459329655.0,286047004.4,N
1459329655.9,286047004.4,N
1459329675.8,286046999.8,N
1459329695.6,286047000.6,N
1459329715.4,286047002.7,N
1459329735.2,286047002.9,N
1459329755.1,286047005.1,N
1459329756.0,286047005.1,N
1459329775.8,286047009.9,Y
1459329795.6,286047009.5,P
1459329815.5,286047011.4,N
1459329835.3,286047009.5,N
1459329855.1,286047011.2,N
1459329875.9,286047010.9,N
1459329895.7,286047014.8,Y
1459329915.5,286047007.0,P
1459329935.4,286047004.7,P
1459329955.2,286047005.0,N
1459329975.0,286047010.2,Y
1459329975.9,286047010.2,P
1459329995.8,286047006.9,P
1459330015.6,286047009.0,P
1459330035.4,286047012.8,Y
1459330055.3,286047008.6,P
1459330075.1,286047012.4,P
1459330095.8,286047017.2,P
1459330115.7,286047019.6,Y
1459330135.5,286047014.0,P
1459330155.3,286047011.9,P
1459330175.2,286047009.6,P
1459330195.9,286047009.0,Y
1459330215.7,286046996.8,P
1459330235.6,286047000.5,N
1459330255.4,286046999.7,N
1459330275.2,286046998.5,N
1459330295.1,286046998.3,N
1459330296.0,286046998.3,N
1459330315.8,286046998.9,N
1459330335.6,286047002.0,N
1459330355.5,286047002.3,N
1459330375.3,286047001.5,N
1459330395.1,286047004.9,N
1459330415.9,286047004.6,N
1459330435.7,286047007.6,N
1459330455.5,286047007.6,N
1459330475.3,286047004.2,N
1459330495.2,286047002.2,N
1459330515.0,286047004.0,N
1459330515.9,286047004.0,N
1459330535.7,286047004.2,N
1459330555.6,286047002.5,N
1459330575.4,286046998.5,N
1459330595.2,286046998.7,N
1459330615.1,286046998.5,N
1459330616.0,286046998.5,N
1459330635.8,286047002.7,N
1459330655.6,286047001.7,N
1459330675.5,286047002.4,N
1459330695.3,286046998.5,N
1459330715.1,286047003.8,N
1459330735.9,286047005.8,N
1459330755.7,286047003.2,N
1459330775.5,286047004.1,N
1459330795.3,286047004.1,N
1459330815.2,286047002.6,N
1459330835.0,286047001.2,N
1459330835.9,286047001.2,N
1459330855.7,286047000.4,N
1459330875.6,286047002.5,N
1459330895.4,286047003.4,N
1459330915.2,286047001.3,N
1459330935.1,286047004.0,N
1459330936.0,286047004.0,N
1459330955.8,286047001.6,N
1459330975.6,286047002.6,N
1459330995.5,286046998.8,N
1459331015.3,286046996.5,N
1459331035.1,286046995.1,N
1459331055.9,286046996.1,N
1459331075.7,286046995.6,N
1459331095.5,286046997.8,N
1459331115.4,286046997.6,N
1459331135.2,286046995.2,N
1459331155.0,286046995.9,N
1459331155.9,286046995.9,N
1459331175.8,286046991.8,N
1459331195.6,286046990.5,N
1459331215.4,286046988.9,N
1459331235.3,286046989.4,N
1459331255.1,286046990.0,N
1459331256.0,286046990.0,N
1459331275.8,286046988.7,N
1459331295.6,286046987.1,N
1459331315.5,286046985.4,N
1459331335.3,286046982.6,Y
1459331355.2,286046984.0,P
1459331375.9,286046984.3,N
1459331395.7,286046986.0,N
1459331415.6,286046983.0,Y
1459331435.4,286046993.7,P
1459331455.2,286046994.4,N
1459331475.0,286046994.4,N
1459331476.0,286046994.4,N
1459331495.8,286046994.3,N
1459331515.6,286046996.0,N
1459331535.5,286046990.7,Y
1459331555.3,286046994.0,P
1459331575.1,286046991.9,P
1459331595.8,286046990.5,P
1459331615.7,286046990.4,Y
1459331635.5,286046996.6,P
1459331655.3,286046996.7,N
1459331675.2,286046996.5,N
1459331695.0,286046996.4,N
1459331695.9,286046996.4,N
1459331715.8,286046994.8,Y
1459331735.6,286046999.4,P
1459331755.4,286046999.3,N
1459331775.2,286046997.3,N
1459331795.1,286046993.4,Y
1459331796.0,286046993.4,P
1459331815.8,286046997.0,N
1459331835.6,286046997.7,N
1459331855.5,286046996.1,N
1459331875.3,286046993.5,Y
1459331895.1,286046997.0,P
1459331915.9,286046996.8,P
1459331935.7,286046993.7,P
1459331955.6,286046994.1,Y
1459331975.4,286046995.6,P
1459331995.2,286046999.5,N
